CSS (MENGTIAN)

Last updated on Wed Sep 09 2026 00:02:05 GMT+0000 (Coordinated Universal Time)

1 54216U 22143A 26251.24598262 .00020895 00000+0 25756-3 0 9995 2 54216 41.4679 177.7585 0002480 264.0014 96.0542 15.59694720306881
UTC large
Height (km)
Speed (km/s)
/
Latitude / Longitude
Inclination (degrees)
Orbital Period (minutes)
Azimuth
Elevation
Range (km)
Doppler Factor

Next 0 passes for location: London (51.5072 / 0.1276)

No passes found over London.
CSS (MENGTIAN)